W7VEE-2 Weather Reports


Display with metric or nautical units.
time (UTC)temp
F
wind
direction
speed
MPH
gust
MPH
rain 1hr
in
rain 24hr
in
rain mn
in
humidity
%
barometer
mb
20210302203807 62 284 2.0 6.0 0.00 0.00 0.00
20210302202606 62 307 5.0 11.0 0.00 0.00 0.00
20210302201319 61 296 1.0 8.0 0.00 0.00 0.00
20210302200053 60 315 6.0 11.0 0.00 0.00 0.00
20210302194932 62 287 8.0 10.0 0.00 0.00 0.00
20210302192409 62 295 5.0 7.0 0.00 0.00 0.00
20210302191114 61 303 1.0 6.0 0.00 0.00 0.00
20210302185847 60 292 2.0 5.0 0.00 0.00 0.00
20210302184622 59 274 1.0 4.0 0.00 0.00 0.00
20210302183358 59 291 1.0 5.0 0.00 0.00 0.00
20210302182141 58 264 3.0 5.0 0.00 0.00 0.00
20210302174418 57 316 3.0 4.0 0.00 0.00 0.00
20210302173445 55 58 1.0 4.0 0.00 0.00 0.00
20210302165439 50 302 3.0 8.0 0.00 0.00 0.00
20210302164242 48 337 2.0 3.0 0.00 0.00 0.00
20210302163418 45 337 2.0 4.0 0.00 0.00 0.00
20210302161730 43 337 4.0 5.0 0.00 0.00 0.00
20210302160510 40 337 3.0 4.0 0.00 0.00 0.00
20210302155237 38 337 4.0 5.0 0.00 0.00 0.00
20210302154100 35 146 3.0 4.0 0.00 0.00 0.00
20210302153029 32 337 0.0 2.0 0.00 0.00 0.00
20210302151522 29 315 0.0 0.0 0.00 0.00 0.00
20210302145117 23 337 1.0 3.0 0.00 0.00 0.00
20210302143804 23 86 0.0 2.0 0.00 0.00 0.00
20210302142714 25 247 0.0 0.0 0.00 0.00 0.00
20210302141314 25 337 4.0 5.0 0.00 0.00 0.00
20210302140050 23 233 0.0 1.0 0.00 0.00 0.00
20210302134848 26 337 0.0 1.0 0.00 0.00 0.00
20210302133614 27 337 4.0 5.0 0.00 0.00 0.00
20210302132334 26 337 3.0 6.0 0.00 0.00 0.00
20210302131109 24 337 2.0 3.0 0.00 0.00 0.00
20210302125845 26 337 0.0 2.0 0.00 0.00 0.00
20210302124620 26 337 1.0 2.0 0.00 0.00 0.00
20210302122132 25 230 0.0 0.0 0.00 0.00 0.00
20210302115641 26 303 0.0 0.0 0.00 0.00 0.00
20210302114416 26 337 0.0 0.0 0.00 0.00 0.00
20210302113538 24 337 0.0 1.0 0.00 0.00 0.00
20210302111925 24 48 0.0 0.0 0.00 0.00 0.00
20210302110730 24 337 0.0 2.0 0.00 0.00 0.00
20210302105512 24 337 0.0 0.0 0.00 0.00 0.00
20210302103258 24 337 0.0 0.0 0.00 0.00 0.00
20210302101720 23 337 0.0 1.0 0.00 0.00 0.00
20210302100513 24 120 0.0 0.0 0.00 0.00 0.00
20210302095351 25 337 0.0 2.0 0.00 0.00 0.00
20210302094019 25 45 1.0 1.0 0.00 0.00 0.00
20210302093319 24 337 0.0 0.0 0.00 0.00 0.00
20210302091525 24 337 0.0 0.0 0.00 0.00 0.00
20210302090947 25 337 0.0 0.0 0.00 0.00 0.00
20210302085024 25 337 0.0 1.0 0.00 0.00 0.00
20210302083850 25 337 1.0 2.0 0.00 0.00 0.00
20210302082638 24 337 1.0 2.0 0.00 0.00 0.00
20210302074841 25 11 0.0 0.0 0.00 0.00 0.00
20210302073556 25 172 0.0 0.0 0.00 0.00 0.00
20210302072347 26 337 0.0 0.0 0.00 0.00 0.00
20210302065852 27 337 0.0 0.0 0.00 0.00 0.00
20210302064616 28 337 0.0 1.0 0.00 0.00 0.00
20210302063045 29 0 0.0 0.0 0.00 0.00 0.00
20210302060423 29 171 1.0 2.0 0.00 0.00 0.00
20210302053433 30 108 0.0 2.0 0.00 0.00 0.00
20210302051924 31 58 0.0 2.0 0.00 0.00 0.00
20210302050654 33 225 1.0 2.0 0.00 0.00 0.00
20210302045432 34 337 2.0 3.0 0.00 0.00 0.00
20210302044205 33 337 2.0 8.0 0.00 0.00 0.00
20210302043319 34 136 2.0 3.0 0.00 0.00 0.00
20210302041721 37 337 1.0 2.0 0.00 0.00 0.00
20210302040450 37 337 2.0 4.0 0.00 0.00 0.00
20210302035229 37 337 2.0 3.0 0.00 0.00 0.00
20210302034000 37 43 0.0 0.0 0.00 0.00 0.00
20210302025029 43 272 0.0 1.0 0.00 0.00 0.00
20210302023756 44 229 1.0 3.0 0.00 0.00 0.00
20210302021309 46 227 1.0 2.0 0.00 0.00 0.00
20210302020046 46 270 2.0 4.0 0.00 0.00 0.00
20210302014926 48 257 3.0 4.0 0.00 0.00 0.00
20210302012345 50 251 3.0 8.0 0.00 0.00 0.00
20210302005836 55 260 8.0 13.0 0.00 0.00 0.00
20210302003619 53 228 5.0 7.0 0.00 0.00 0.00
20210302002121 53 225 8.0 10.0 0.00 0.00 0.00
20210301235634 55 262 9.0 12.0 0.00 0.00 0.00
20210301233357 58 319 1.0 7.0 0.00 0.00 0.00
20210301231918 57 317 4.0 5.0 0.00 0.00 0.00
20210301230651 58 275 4.0 6.0 0.00 0.00 0.00
20210301225426 58 262 3.0 4.0 0.00 0.00 0.00
20210301224210 60 198 3.0 4.0 0.00 0.00 0.00
20210301223253 61 63 0.0 5.0 0.00 0.00 0.00
20210301221711 58 356 2.0 4.0 0.00 0.00 0.00
20210301215222 58 184 1.0 5.0 0.00 0.00 0.00
20210301214024 59 261 6.0 8.0 0.00 0.00 0.00
20210301213150 62 221 0.0 6.0 0.00 0.00 0.00
20210301211530 63 218 0.0 4.0 0.00 0.00 0.00